Volver al catálogo

STARLINK-30418

ActivoComunicacionesVLEO
NORAD 57829·PAYLOAD·🇺🇸 United States

Lanzado Sep 9, 2023 desde Cape Canaveral Space Force Station

Loading…

Próximos Pases (próximas 24 horas)

TLE

ActualizadoSource: CelesTrak SupGP

Época: Sep 15, 2026, 02:23 UTC

1 57829C 23138X   26258.09979167 -.00018976  00000+0 -68739-3 0  2585
2 57829  43.0003 244.2993 0001333 258.4808 271.4421 15.27583314    12

Sigue STARLINK-30418 en tiempo real con AllMySat

Download on the App Store